Content
SEND FEEDBACK

Daily
Averages
Monthly
Summary
United States of America

MELBOURNE, FLORIDA


Home > North America > United States > Florida
Elevation: 26 feet     Latitude: 28 06N     Longitude: 080 38W

WEATHER
 
SELECT A DAY
Number of Records: 187,414;   Date Range: 1/1/95 - 9/18/14
 
SHARE

PRINT THIS DATA

[ ← Previous Day ]
WEATHER ALMANAC - FEBRUARY 13, 2013
[ Next Day → ]
[ °C ]   °F
Weather ElementAverageHighLow
Temperature74.8 °F88 °F (3:53 pm)64 °F (10:53 pm)
Dewpoint65.6 °F69.8 °F (10:50 am)60.1 °F (10:53 pm)
Humidity75.5 %97 % (6:53 am)40 % (3:53 pm)
Barometer29.93 in29.98 in (9:53 am)29.83 in (3:53 pm)
Wind Speed13.2 mph20.7 mph (3:53 pm)
Wind Gust29.9 mph (9:38 pm)
Weather ElementAverage
Visibility9.9 mi
Wind DirectionSSW (216.8 °)

Weather ElementTotal
Precipitation0.02 in
Cooling Degree Days11 (Base 65)
Growing Degree Days26 (Base 50)
Averaged from 28 records on February 13, 2013
WEATHER CONDITIONS BREAKOUT
WIND DIRECTION BREAKOUT
WEATHER BY HOUR - FEBRUARY 13, 2013
[ °C ]   °F
Local TimeTemperatureDewpointHumidityBarometerVisibilityWind DirectionWind SpeedGust SpeedPrecipitationEventsConditions
1:53 AM68.0 °F66.0 °F93 %29.97 in10.0 miSSW (200°)8.1 mphClear
2:53 AM68.0 °F66.0 °F93 %29.96 in10.0 miSSW (200°)6.9 mphMostly Cloudy
3:53 AM68.0 °F66.9 °F96 %29.95 in10.0 miSouth (190°)9.2 mphPartly Cloudy
4:20 AM68.0 °F66.2 °F94 %29.94 in10.0 miSSW (200°)10.4 mphPartly Cloudy
4:53 AM68.0 °F66.9 °F96 %29.94 in10.0 miSSW (200°)9.2 mphMostly Cloudy
5:53 AM69.1 °F68.0 °F96 %29.95 in10.0 miSSW (210°)12.7 mphMostly Cloudy
6:53 AM70.0 °F69.1 °F97 %29.96 in10.0 miSSW (210°)11.5 mphOvercast
7:53 AM70.0 °F68.0 °F93 %29.97 in10.0 miSSW (210°)12.7 mphOvercast
8:53 AM72.0 °F69.1 °F91 %29.97 in10.0 miSSW (200°)18.4 mph25.3 mphOvercast
9:53 AM75.9 °F66.9 °F74 %29.98 in10.0 miSSW (200°)18.4 mph26.5 mphMostly Cloudy
9:58 AM77.0 °F68.0 °F74 %29.98 in10.0 miSSW (200°)17.3 mph26.5 mphScattered Clouds
10:05 AM77.0 °F68.0 °F74 %29.98 in10.0 miSouth (190°)15.0 mph23.0 mphMostly Cloudy
10:50 AM78.8 °F69.8 °F74 %29.97 in10.0 miSSW (200°)18.4 mphScattered Clouds
10:53 AM79.0 °F69.1 °F72 %29.97 in10.0 miSSW (200°)17.3 mphPartly Cloudy
11:53 AM81.0 °F68.0 °F65 %29.94 in10.0 miSW (220°)16.1 mph25.3 mphScattered Clouds
12:53 PM82.9 °F66.9 °F58 %29.91 in10.0 miSW (230°)16.1 mph21.9 mphMostly Cloudy
1:53 PM86.0 °F66.0 °F51 %29.87 in9.0 miSW (230°)18.4 mph27.6 mphPartly Cloudy
2:53 PM86.0 °F64.0 °F48 %29.85 in10.0 miSW (220°)18.4 mph26.5 mphMostly Cloudy
3:53 PM88.0 °F61.0 °F40 %29.83 in10.0 miSW (220°)20.7 mph28.8 mphPartly Cloudy
4:53 PM86.0 °F62.1 °F44 %29.84 in10.0 miWSW (240°)11.5 mph25.3 mphPartly Cloudy
5:53 PM82.9 °F62.1 °F49 %29.85 in10.0 miSW (230°)13.8 mphClear
6:53 PM80.1 °F64.0 °F58 %29.87 in10.0 miSW (230°)12.7 mph19.6 mphClear
7:53 PM77.0 °F64.9 °F66 %29.89 in10.0 miSW (230°)9.2 mphClear
8:53 PM75.9 °F66.0 °F71 %29.91 in10.0 miWSW (240°)10.4 mphClear
9:38 PM66.2 °F60.8 °F83 %29.96 in10.0 miNW (320°)19.6 mph29.9 mph0.00 inRainLight Rain
9:53 PM64.9 °F61.0 °F87 %29.97 in8.0 miNW (320°)12.7 mph25.3 mph0.01 inRainRain
10:53 PM64.0 °F60.1 °F87 %29.98 in10.0 miNNW (330°)4.6 mph0.00 inOvercast
11:53 PM64.0 °F61.0 °F90 %29.98 in10.0 miCalm0.01 inOvercast
Hourly data recorded from KMLB, located miles away from Melbourne, Florida







STORIES FROM OUR PARTNERS